sat.trackr.live / text

‹ back to catalog

STARLINK-4730

NORAD 53794 · 2022-111X

PAYLOAD ACTIVE UNKNOWN

§ Identity

Operator
Country
US
Launch date
2022-09-11
Launch site
AFETR
Launch vehicle
Mass (kg)
RCS (m²)

Purposes: comms

External: N2YO · Heavens-Above · Gunter

§ Orbital elements

Epoch: 2026-09-20T22:05:27.267936Z

Period
94.01 min
Inclination
53.1582°
Eccentricity
0.0001250
Mean motion
15.31705322 rev/d
Perigee alt
469.9 km
Apogee alt
471.6 km
Semi-major
6,848.9 km
B*
2.4828e-5
RAAN
104.1146°
Arg perigee
90.2040°
Mean anomaly
269.9105°
Rev number
22,334

§ Raw data

STARLINK-47301 53794U 22111X   26263.92045449  .00000405  00000+0  24828-4 0  99972 53794  53.1582 104.1146 0001250  90.2040 269.9105 15.31705322223349

JSON: /api/v1/satellites/53794 · /tle

For live sub-satellite position, see the globe view (requires WebGL).

§ Visibility from observer

Set your observer location to see the next 7 days of passes ≥ 10°. The values pass through the URL so the page stays shareable.

No JS? Fill the form by hand. The geolocation button needs JavaScript.